22-03-2023, 00:00:02,    199,    0.7,    7.8,   0.00,   0.00, 1000.3,   99.1, -999.0
22-03-2023, 00:00:12,    199,    3.3,    7.8,   0.00,   0.00, 1000.2,   99.0, -999.0
22-03-2023, 00:00:22,    196,    5.2,    7.7,   0.00,   0.00, 1000.3,   99.0, -999.0
22-03-2023, 00:00:32,    221,    4.1,    7.7,   0.00,   0.00, 1000.3,   99.0, -999.0
22-03-2023, 00:00:42,    181,    3.8,    7.8,   0.00,   0.00, 1000.3,   99.1, -999.0
22-03-2023, 00:00:52,    242,    4.1,    7.8,   0.00,   0.00, 1000.3,   99.0, -999.0
22-03-2023, 00:01:02,    194,    2.5,    7.7,   0.00,   0.00, 1000.2,   99.0, -999.0
22-03-2023, 00:01:12,    145,    3.7,    7.8,   0.00,   0.00, 1000.2,   99.0, -999.0
22-03-2023, 00:01:22,    187,    5.1,    7.9,   0.00,   0.00, 1000.3,   99.0, -999.0
22-03-2023, 00:01:32,    195,    2.6,    7.9,   0.00,   0.00, 1000.2,   99.0, -999.0
22-03-2023, 00:01:42,    205,    3.9,    7.9,   0.00,   0.00, 1000.3,   99.0, -999.0
22-03-2023, 00:01:52,    167,    2.4,    7.8,   0.00,   0.00, 1000.3,   98.9, -999.0
22-03-2023, 00:02:02,    198,    1.7,    7.8,   0.00,   0.00, 1000.3,   99.0, -999.0
22-03-2023, 00:02:12,    187,    2.2,    7.8,   0.00,   0.00, 1000.2,   99.0, -999.0
22-03-2023, 00:02:22,    207,    2.2,    7.8,   0.00,   0.00, 1000.2,   98.9, -999.0
22-03-2023, 00:02:32,    146,    2.4,    7.8,   0.00,   0.00, 1000.2,   99.0, -999.0
22-03-2023, 00:02:42,    221,    1.1,    7.9,   0.00,   0.00, 1000.3,   99.0, -999.0
22-03-2023, 00:02:52,    237,    1.7,    7.9,   0.00,   0.00, 1000.2,   99.0, -999.0
22-03-2023, 00:03:02,    173,    1.5,    7.8,   0.00,   0.00, 1000.2,   99.0, -999.0
22-03-2023, 00:03:12,    193,    1.3,    7.9,   0.00,   0.00, 1000.3,   99.0, -999.0
22-03-2023, 00:03:22,    180,    2.2,    7.9,   0.00,   0.00, 1000.2,   99.0, -999.0
22-03-2023, 00:03:32,    167,    2.0,    7.9,   0.00,   0.00, 1000.2,   99.0, -999.0
22-03-2023, 00:03:42,    154,    2.6,    7.8,   0.00,   0.00, 1000.2,   99.0, -999.0
22-03-2023, 00:03:52,    182,    1.4,    7.9,   0.00,   0.00, 1000.2,   99.0, -999.0
22-03-2023, 00:04:02,    231,    2.7,    7.8,   0.00,   0.00, 1000.2,   99.0, -999.0
22-03-2023, 00:04:12,    202,    3.0,    7.8,   0.00,   0.00, 1000.2,   99.0, -999.0
22-03-2023, 00:04:21,    217,    3.0,    7.8,   0.00,   0.00, 1000.2,   99.0, -999.0
22-03-2023, 00:04:32,    158,    1.2,    7.8,   0.00,   0.00, 1000.2,   99.0, -999.0
22-03-2023, 00:04:42,    159,    0.4,    7.9,   0.00,   0.00, 1000.2,   99.0, -999.0
22-03-2023, 00:04:51,    180,    1.1,    7.9,   0.00,   0.00, 1000.2,   99.0, -999.0
22-03-2023, 00:05:03,    222,    1.3,    7.9,   0.00,   0.00, 1000.2,   99.0, -999.0
22-03-2023, 00:05:12,    152,    0.8,    7.8,   0.00,   0.00, 1000.2,   99.0, -999.0
22-03-2023, 00:05:22,    172,    1.3,    7.8,   0.00,   0.00, 1000.2,   99.0, -999.0
22-03-2023, 00:05:31,    225,    4.2,    7.8,   0.00,   0.00, 1000.2,   99.0, -999.0
22-03-2023, 00:05:41,    210,    2.5,    7.9,   0.00,   0.00, 1000.2,   99.0, -999.0
22-03-2023, 00:05:52,    118,    4.3,    7.9,   0.00,   0.00, 1000.2,   99.1, -999.0
22-03-2023, 00:06:01,    219,    3.2,    7.9,   0.00,   0.00, 1000.2,   99.1, -999.0
22-03-2023, 00:06:11,    203,    2.3,    7.8,   0.00,   0.00, 1000.2,   98.9, -999.0
22-03-2023, 00:06:21,    171,    2.2,    7.9,   0.00,   0.00, 1000.1,   99.0, -999.0
22-03-2023, 00:06:32,    163,    3.0,    7.8,   0.00,   0.00, 1000.2,   99.0, -999.0
22-03-2023, 00:06:41,    184,    3.2,    7.9,   0.00,   0.00, 1000.2,   99.0, -999.0
22-03-2023, 00:06:51,    257,    1.8,    7.8,   0.00,   0.00, 1000.2,   99.0, -999.0
22-03-2023, 00:07:02,    207,    2.0,    7.9,   0.00,   0.00, 1000.2,   99.0, -999.0
22-03-2023, 00:07:11,    216,    2.8,    7.9,   0.00,   0.00, 1000.2,   99.0, -999.0
22-03-2023, 00:07:21,    171,    3.2,    7.8,   0.00,   0.00, 1000.2,   99.0, -999.0
22-03-2023, 00:07:31,    209,    4.3,    7.9,   0.00,   0.00, 1000.1,   99.0, -999.0
22-03-2023, 00:07:41,    158,    3.2,    7.9,   0.00,   0.00, 1000.1,   99.1, -999.0
22-03-2023, 00:07:51,    155,    1.2,    7.8,   0.00,   0.00, 1000.1,   99.0, -999.0
22-03-2023, 00:08:01,    189,    0.7,    7.8,   0.00,   0.00, 1000.1,   99.0, -999.0
22-03-2023, 00:08:11,    216,    3.4,    7.8,   0.00,   0.00, 1000.1,   99.1, -999.0
22-03-2023, 00:08:21,    185,    4.6,    8.0,   0.00,   0.00, 1000.2,   99.0, -999.0
22-03-2023, 00:08:31,    189,    4.0,    7.9,   0.00,   0.00, 1000.2,   99.0, -999.0
22-03-2023, 00:08:41,    182,    2.1,    7.9,   0.00,   0.00, 1000.1,   99.1, -999.0
22-03-2023, 00:08:51,    221,    3.8,    7.9,   0.00,   0.00, 1000.1,   99.0, -999.0
22-03-2023, 00:09:01,    197,    3.9,    7.8,   0.00,   0.00, 1000.1,   99.0, -999.0
22-03-2023, 00:09:11,    189,    0.7,    7.8,   0.00,   0.00, 1000.1,   99.0, -999.0
22-03-2023, 00:09:21,    162,    1.9,    7.9,   0.00,   0.00, 1000.1,   99.0, -999.0
22-03-2023, 00:09:31,    212,    0.9,    7.8,   0.00,   0.00, 1000.1,   99.0, -999.0
22-03-2023, 00:09:41,    183,    1.2,    7.9,   0.00,   0.00, 1000.1,   99.0, -999.0
22-03-2023, 00:09:51,    216,    3.9,    7.9,   0.00,   0.00, 1000.1,   99.0, -999.0
22-03-2023, 00:10:01,    223,    4.7,    7.8,   0.00,   0.00, 1000.1,   99.1, -999.0
22-03-2023, 00:10:11,    171,    1.9,    7.9,   0.00,   0.00, 1000.1,   99.0, -999.0
22-03-2023, 00:10:21,    202,    2.0,    7.9,   0.00,   0.00, 1000.1,   99.1, -999.0
22-03-2023, 00:10:31,    221,    1.0,    7.9,   0.00,   0.00, 1000.1,   99.0, -999.0
22-03-2023, 00:10:41,    218,    2.1,    7.8,   0.00,   0.00, 1000.1,   99.0, -999.0
22-03-2023, 00:10:51,    217,    0.9,    7.9,   0.00,   0.00, 1000.1,   99.0, -999.0
22-03-2023, 00:11:01,    217,    0.1,    7.8,   0.00,   0.01, 1000.0,   98.7, -999.0
22-03-2023, 00:11:11,    206,    1.0,    7.8,   0.00,   0.00, 1000.0,   98.7, -999.0
22-03-2023, 00:11:21,    201,    1.1,    7.7,   0.00,   0.00, 1000.0,   98.9, -999.0
22-03-2023, 00:11:31,    192,    1.3,    7.9,   0.00,   0.00, 1000.0,   99.0, -999.0
22-03-2023, 00:11:41,    136,    1.6,    7.9,   0.00,   0.00, 1000.0,   99.0, -999.0
22-03-2023, 00:11:51,    147,    3.2,    7.9,   0.00,   0.00, 1000.0,   98.9, -999.0
22-03-2023, 00:12:01,    214,    0.8,    7.8,   0.00,   0.00,  999.9,   98.9, -999.0
22-03-2023, 00:12:11,    166,    1.7,    7.8,   0.00,   0.00, 1000.0,   99.0, -999.0
22-03-2023, 00:12:21,    199,    0.9,    7.8,   0.00,   0.00, 1000.0,   99.0, -999.0
22-03-2023, 00:12:31,    162,    0.2,    7.7,   0.00,   0.00,  999.9,   98.8, -999.0
22-03-2023, 00:12:41,    177,    1.3,    7.9,   0.00,   0.00, 1000.0,   98.9, -999.0
22-03-2023, 00:12:51,    178,    2.0,    7.8,   0.00,   0.00, 1000.0,   99.0, -999.0
22-03-2023, 00:13:01,    167,    2.6,    7.8,   0.00,   0.00, 1000.0,   98.9, -999.0
22-03-2023, 00:13:11,    178,    5.5,    7.9,   0.00,   0.00, 1000.0,   98.9, -999.0
22-03-2023, 00:13:21,    200,    2.8,    7.9,   0.00,   0.00, 1000.0,   99.0, -999.0
22-03-2023, 00:13:31,    207,    3.0,    7.9,   0.00,   0.00, 1000.0,   99.0, -999.0
22-03-2023, 00:13:41,    121,    1.5,    7.9,   0.00,   0.00, 1000.0,   99.1, -999.0
22-03-2023, 00:13:50,    206,    2.1,    7.9,   0.00,   0.00, 1000.0,   99.0, -999.0
22-03-2023, 00:14:01,    224,    7.2,    7.8,   0.00,   0.00, 1000.0,   99.0, -999.0
22-03-2023, 00:14:11,    182,    4.0,    7.9,   0.00,   0.00, 1000.0,   99.0, -999.0
22-03-2023, 00:14:21,    219,    2.3,    7.9,   0.00,   0.00, 1000.0,   99.0, -999.0
22-03-2023, 00:14:30,    186,    0.4,    7.9,   0.00,   0.00, 1000.0,   98.9, -999.0
22-03-2023, 00:14:41,    171,    0.5,    7.8,   0.00,   0.00,  999.9,   98.9, -999.0
22-03-2023, 00:14:51,    211,    0.8,    8.0,   0.00,   0.00,  999.9,   98.9, -999.0
22-03-2023, 00:15:00,    188,    2.8,    7.9,   0.00,   0.00, 1000.0,   99.0, -999.0
22-03-2023, 00:15:10,    205,    4.0,    7.9,   0.00,   0.00, 1000.0,   99.0, -999.0
22-03-2023, 00:15:21,    181,    3.9,    7.9,   0.00,   0.00, 1000.0,   99.0, -999.0
22-03-2023, 00:15:31,    201,    2.9,    7.9,   0.00,   0.00, 1000.0,   99.0, -999.0
22-03-2023, 00:15:40,    228,    3.0,    7.8,   0.00,   0.00, 1000.0,   99.1, -999.0
22-03-2023, 00:15:50,    161,    2.4,    7.9,   0.00,   0.00, 1000.0,   99.0, -999.0
22-03-2023, 00:16:01,    153,    2.6,    7.9,   0.00,   0.00, 1000.0,   99.0, -999.0
22-03-2023, 00:16:10,    177,    0.7,    7.9,   0.00,   0.00, 1000.0,   99.0, -999.0
22-03-2023, 00:16:20,    177,    0.2,    7.8,   0.00,   0.00,  999.9,   98.9, -999.0
22-03-2023, 00:16:31,    175,    0.6,    7.8,   0.00,   0.00, 1000.0,   99.0, -999.0
22-03-2023, 00:16:40,    196,    0.3,    7.8,   0.00,   0.00,  999.9,   98.9, -999.0
22-03-2023, 00:16:50,    228,    2.6,    7.9,   0.00,   0.00, 1000.0,   99.0, -999.0
22-03-2023, 00:17:00,    196,    3.6,    7.9,   0.00,   0.00, 1000.0,   99.0, -999.0
22-03-2023, 00:17:11,    137,    2.3,    7.9,   0.00,   0.00, 1000.0,   99.0, -999.0
22-03-2023, 00:17:20,    200,    3.1,    7.9,   0.00,   0.00, 1000.0,   99.0, -999.0
22-03-2023, 00:17:30,    171,    4.3,    7.9,   0.00,   0.00, 1000.0,   99.0, -999.0
22-03-2023, 00:17:40,    212,    2.4,    7.9,   0.00,   0.00, 1000.0,   99.0, -999.0
22-03-2023, 00:17:50,    211,    1.2,    7.9,   0.00,   0.00, 1000.0,   99.0, -999.0
22-03-2023, 00:18:00,    209,    1.1,    7.9,   0.00,   0.00, 1000.0,   99.0, -999.0
22-03-2023, 00:18:10,    206,    2.6,    7.8,   0.00,   0.00,  999.9,   99.0, -999.0
22-03-2023, 00:18:20,    212,    2.1,    7.9,   0.00,   0.00, 1000.0,   99.0, -999.0
22-03-2023, 00:18:30,    198,    4.0,    7.8,   0.00,   0.00, 1000.0,   99.0, -999.0
22-03-2023, 00:18:40,    196,    1.2,    7.9,   0.00,   0.00,  999.9,   99.0, -999.0
22-03-2023, 00:18:50,    206,    2.1,    7.9,   0.00,   0.00, 1000.0,   99.0, -999.0
22-03-2023, 00:19:00,    202,    0.9,    7.8,   0.00,   0.00, 1000.0,   98.9, -999.0
22-03-2023, 00:19:10,    209,    3.5,    7.9,   0.00,   0.00, 1000.0,   99.0, -999.0
22-03-2023, 00:19:20,    197,    3.7,    7.8,   0.00,   0.00, 1000.0,   99.0, -999.0
22-03-2023, 00:19:30,    222,    2.3,    7.8,   0.00,   0.00, 1000.0,   99.0, -999.0
22-03-2023, 00:19:40,    212,    2.6,    7.9,   0.00,   0.00, 1000.0,   99.0, -999.0
22-03-2023, 00:19:50,    166,    0.6,    7.8,   0.00,   0.00,  999.9,   98.9, -999.0
22-03-2023, 00:20:00,    218,    0.6,    7.7,   0.00,   0.00,  999.9,   98.9, -999.0
22-03-2023, 00:20:10,    226,    3.4,    7.8,   0.00,   0.00, 1000.0,   99.0, -999.0
22-03-2023, 00:20:20,    168,    4.0,    7.8,   0.00,   0.00, 1000.0,   99.0, -999.0
22-03-2023, 00:20:30,    190,    0.6,    7.8,   0.00,   0.00, 1000.0,   99.0, -999.0
22-03-2023, 00:20:40,    187,    0.4,    7.8,   0.00,   0.00,  999.9,   98.9, -999.0
22-03-2023, 00:20:50,    193,    0.5,    7.8,   0.00,   0.00, 1000.0,   99.0, -999.0
22-03-2023, 00:21:00,    217,    3.6,    7.8,   0.00,   0.00, 1000.0,   99.0, -999.0
22-03-2023, 00:21:10,    225,    4.5,    7.8,   0.00,   0.00, 1000.0,   99.1, -999.0
22-03-2023, 00:21:20,    197,    4.1,    7.8,   0.00,   0.00, 1000.0,   99.0, -999.0
22-03-2023, 00:21:30,    201,    2.1,    7.8,   0.00,   0.00, 1000.0,   99.0, -999.0
22-03-2023, 00:21:40,    182,    2.1,    7.8,   0.00,   0.00, 1000.0,   99.0, -999.0
22-03-2023, 00:21:50,    178,    4.0,    7.8,   0.00,   0.00, 1000.0,   99.0, -999.0
22-03-2023, 00:22:00,    172,    2.7,    7.9,   0.00,   0.00, 1000.0,   99.0, -999.0
22-03-2023, 00:22:10,    201,    1.4,    7.9,   0.00,   0.00, 1000.0,   99.0, -999.0
22-03-2023, 00:22:20,    114,    1.3,    7.8,   0.00,   0.00, 1000.0,   99.0, -999.0
22-03-2023, 00:22:30,    146,    2.1,    7.8,   0.00,   0.00, 1000.0,   99.0, -999.0
22-03-2023, 00:22:40,    158,    2.6,    7.9,   0.00,   0.00, 1000.0,   99.0, -999.0
22-03-2023, 00:22:50,    200,    2.2,    7.9,   0.00,   0.00, 1000.0,   99.0, -999.0
22-03-2023, 00:23:00,    222,    2.5,    7.8,   0.00,   0.00, 1000.0,   99.0, -999.0
22-03-2023, 00:23:10,    192,    1.0,    7.8,   0.00,   0.00,  999.9,   98.9, -999.0
22-03-2023, 00:23:20,    213,    1.7,    7.8,   0.00,   0.00, 1000.0,   99.1, -999.0
22-03-2023, 00:23:30,    207,    4.0,    7.9,   0.00,   0.00, 1000.0,   99.1, -999.0
22-03-2023, 00:23:40,    219,    4.9,    7.8,   0.00,   0.00, 1000.0,   99.0, -999.0
22-03-2023, 00:23:50,    199,    3.3,    7.8,   0.00,   0.00, 1000.0,   99.0, -999.0
22-03-2023, 00:23:59,    132,    1.2,    7.8,   0.00,   0.00, 1000.0,   99.0, -999.0
22-03-2023, 00:24:10,    140,    3.2,    7.8,   0.00,   0.00, 1000.0,   99.0, -999.0
22-03-2023, 00:24:20,    168,    4.0,    7.8,   0.00,   0.00, 1000.0,   99.0, -999.0
22-03-2023, 00:24:30,    146,    3.1,    7.9,   0.00,   0.00, 1000.0,   99.0, -999.0
22-03-2023, 00:24:39,    167,    3.8,    7.8,   0.00,   0.00,  999.9,   99.0, -999.0
22-03-2023, 00:24:50,    160,    3.8,    7.9,   0.00,   0.00, 1000.0,   99.0, -999.0
22-03-2023, 00:25:00,    181,    4.6,    7.9,   0.00,   0.00, 1000.0,   99.0, -999.0
22-03-2023, 00:25:09,    201,    5.1,    7.8,   0.00,   0.00, 1000.0,   99.0, -999.0
22-03-2023, 00:25:19,    186,    3.1,    7.8,   0.00,   0.00, 1000.0,   98.9, -999.0
22-03-2023, 00:25:30,    181,    1.8,    7.8,   0.00,   0.00, 1000.0,   99.0, -999.0
22-03-2023, 00:25:39,    197,    1.0,    7.8,   0.00,   0.00,  999.9,   98.9, -999.0
22-03-2023, 00:25:49,    194,    0.1,    7.8,   0.00,   0.00,  999.9,   98.8, -999.0
22-03-2023, 00:26:00,    188,    0.9,    7.8,   0.00,   0.00, 1000.0,   98.9, -999.0
22-03-2023, 00:26:10,    197,    2.1,    7.9,   0.00,   0.00, 1000.0,   98.9, -999.0
22-03-2023, 00:26:19,    211,    3.4,    7.9,   0.00,   0.00, 1000.0,   99.0, -999.0
22-03-2023, 00:26:29,    209,    2.8,    7.8,   0.00,   0.00, 1000.0,   99.0, -999.0
22-03-2023, 00:26:40,    200,    2.2,    7.9,   0.00,   0.00,  999.9,   99.0, -999.0
22-03-2023, 00:26:49,    184,    1.9,    7.8,   0.00,   0.00, 1000.0,   98.9, -999.0
22-03-2023, 00:26:59,    197,    3.1,    7.8,   0.00,   0.00, 1000.0,   99.0, -999.0
22-03-2023, 00:27:09,    228,    4.9,    7.8,   0.00,   0.00, 1000.0,   99.1, -999.0
22-03-2023, 00:27:20,    139,    3.6,    7.8,   0.00,   0.00,  999.9,   99.1, -999.0
22-03-2023, 00:27:29,    185,    2.8,    7.8,   0.00,   0.00,  999.9,   99.0, -999.0
22-03-2023, 00:27:39,    187,    1.0,    7.8,   0.00,   0.00,  999.9,   99.0, -999.0
22-03-2023, 00:27:49,    118,    0.7,    7.7,   0.00,   0.00,  999.8,   98.8, -999.0
22-03-2023, 00:27:59,    199,    1.9,    7.8,   0.00,   0.00,  999.9,   99.0, -999.0
22-03-2023, 00:28:09,    187,    3.3,    7.8,   0.00,   0.00,  999.9,   99.0, -999.0
22-03-2023, 00:28:19,    161,    2.3,    7.8,   0.00,   0.00,  999.9,   99.0, -999.0
22-03-2023, 00:28:29,    219,    4.3,    7.8,   0.00,   0.00,  999.9,   99.0, -999.0
22-03-2023, 00:28:39,    199,    4.1,    7.8,   0.00,   0.00,  999.9,   99.1, -999.0
22-03-2023, 00:28:49,    220,    3.9,    7.7,   0.00,   0.00,  999.9,   99.0, -999.0
22-03-2023, 00:28:59,    179,    2.6,    7.8,   0.00,   0.00,  999.9,   99.1, -999.0
22-03-2023, 00:29:09,    218,    2.3,    7.7,   0.00,   0.00,  999.9,   99.0, -999.0
22-03-2023, 00:29:19,    216,    2.9,    7.8,   0.00,   0.00,  999.9,   99.0, -999.0
22-03-2023, 00:29:29,    233,    4.0,    7.7,   0.00,   0.00,  999.9,   99.0, -999.0
22-03-2023, 00:29:39,    167,    2.3,    7.8,   0.00,   0.00, 1000.0,   99.0, -999.0
22-03-2023, 00:29:49,    225,    5.2,    7.7,   0.00,   0.00,  999.9,   99.1, -999.0
22-03-2023, 00:29:59,    198,    5.7,    7.9,   0.00,   0.00,  999.9,   99.0, -999.0
22-03-2023, 00:30:09,    194,    3.6,    7.8,   0.00,   0.00,  999.9,   99.0, -999.0
22-03-2023, 00:30:19,    150,    3.8,    7.8,   0.00,   0.00,  999.9,   98.9, -999.0
22-03-2023, 00:30:29,    196,    1.6,    7.8,   0.00,   0.00,  999.9,   99.1, -999.0
22-03-2023, 00:30:39,    203,    0.6,    7.8,   0.00,   0.00,  999.9,   99.0, -999.0
22-03-2023, 00:30:49,    188,    4.0,    7.8,   0.00,   0.00,  999.8,   99.0, -999.0
22-03-2023, 00:30:59,    181,    1.9,    7.7,   0.00,   0.00,  999.8,   99.0, -999.0
22-03-2023, 00:31:09,    146,    1.2,    7.8,   0.00,   0.00,  999.8,   99.0, -999.0
22-03-2023, 00:31:19,    201,    2.7,    7.8,   0.00,   0.00,  999.8,   99.0, -999.0
22-03-2023, 00:31:29,    213,    2.5,    7.8,   0.00,   0.00,  999.9,   98.9, -999.0
22-03-2023, 00:31:39,    177,    1.3,    7.7,   0.00,   0.00,  999.8,   18.5, -999.0
22-03-2023, 00:31:49,    174,    0.5,    7.8,   0.00,   0.00,  999.8,    0.4, -999.0
22-03-2023, 00:31:59,    173,    2.3,    7.8,   0.00,   0.00,  999.8,    0.5, -999.0
22-03-2023, 00:32:09,    188,    1.7,    7.8,   0.00,   0.00,  999.8,    0.5, -999.0
22-03-2023, 00:32:19,    166,    3.9,    7.8,   0.00,   0.00,  999.8,    0.3, -999.0
22-03-2023, 00:32:29,    230,    3.3,    7.7,   0.00,   0.00,  999.8,    0.7, -999.0
22-03-2023, 00:32:39,    155,    2.5,    7.8,   0.00,   0.00,  999.8,    1.1, -999.0
22-03-2023, 00:32:49,    176,    1.9,    7.8,   0.00,   0.00,  999.8,    0.7, -999.0
22-03-2023, 00:32:59,    171,    1.1,    7.8,   0.00,   0.00,  999.8,    0.8, -999.0
22-03-2023, 00:33:09,    163,    3.2,    7.8,   0.00,   0.00,  999.8,    0.7, -999.0
22-03-2023, 00:33:19,    172,    2.5,    7.7,   0.00,   0.00,  999.8,    0.5, -999.0
22-03-2023, 00:33:29,    225,    4.7,    7.8,   0.00,   0.00,  999.8,    0.5, -999.0
22-03-2023, 00:33:39,    214,    2.8,    7.8,   0.00,   0.00,  999.8,    0.5, -999.0
22-03-2023, 00:33:49,    180,    1.4,    7.6,   0.00,   0.00,  999.8,    0.7, -999.0
22-03-2023, 00:33:59,    214,    2.9,    7.7,   0.00,   0.00,  999.8,    0.5, -999.0
22-03-2023, 00:34:08,    224,    2.2,    7.7,   0.00,   0.00,  999.8,    0.5, -999.0
22-03-2023, 00:34:19,    248,    2.9,    7.8,   0.00,   0.00,  999.8,    0.5, -999.0
22-03-2023, 00:34:29,    208,    1.3,    7.8,   0.00,   0.00,  999.7,    0.5, -999.0
22-03-2023, 00:34:39,    129,    0.9,    7.8,   0.00,   0.00,  999.8,    0.4, -999.0
22-03-2023, 00:34:48,    195,    0.8,    7.7,   0.00,   0.00,  999.8,    0.8, -999.0
22-03-2023, 00:34:59,    136,    2.7,    7.7,   0.00,   0.00,  999.8,    0.6, -999.0
22-03-2023, 00:35:09,    187,    2.1,    7.8,   0.00,   0.00,  999.7,    0.5, -999.0
22-03-2023, 00:35:18,    214,    1.4,    7.8,   0.00,   0.00,  999.8,    0.8, -999.0
22-03-2023, 00:35:28,    141,    2.4,    7.7,   0.00,   0.00,  999.7,    0.6, -999.0
22-03-2023, 00:35:39,    188,    2.3,    7.7,   0.00,   0.00,  999.8,    0.6, -999.0
22-03-2023, 00:35:48,    217,    3.0,    7.7,   0.00,   0.00,  999.7,    0.5, -999.0
22-03-2023, 00:35:58,    118,    1.6,    7.7,   0.00,   0.00,  999.7,    0.6, -999.0
22-03-2023, 00:36:09,    228,    2.2,    7.8,   0.00,   0.00,  999.8,    0.5, -999.0
22-03-2023, 00:36:19,    205,    4.0,    7.7,   0.00,   0.00,  999.7,    0.5, -999.0
22-03-2023, 00:36:28,    213,    2.7,    7.7,   0.00,   0.00,  999.7,    0.8, -999.0
22-03-2023, 00:36:38,    221,    3.6,    7.6,   0.00,   0.00,  999.7,    0.6, -999.0
22-03-2023, 00:36:49,    209,    4.1,    7.7,   0.00,   0.00,  999.7,    0.6, -999.0
22-03-2023, 00:36:58,    193,    4.1,    7.8,   0.00,   0.00,  999.7,    0.6, -999.0
22-03-2023, 00:37:08,    193,    2.2,    7.7,   0.00,   0.00,  999.7,    0.7, -999.0
22-03-2023, 00:37:18,    193,    0.2,    7.6,   0.00,   0.00,  999.6,    0.6, -999.0
22-03-2023, 00:37:29,    210,    1.4,    7.7,   0.00,   0.00,  999.7,    0.6, -999.0
22-03-2023, 00:37:38,    176,    2.1,    7.8,   0.00,   0.00,  999.7,    0.6, -999.0
22-03-2023, 00:37:48,    128,    2.8,    7.7,   0.00,   0.00,  999.7,    0.4, -999.0
22-03-2023, 00:37:58,    187,    4.5,    7.7,   0.00,   0.00,  999.7,    0.4, -999.0
22-03-2023, 00:38:08,    207,    2.6,    7.7,   0.00,   0.00,  999.7,    0.7, -999.0
22-03-2023, 00:38:18,    168,    3.9,    7.7,   0.00,   0.00,  999.7,    0.4, -999.0
22-03-2023, 00:38:28,    182,    2.3,    7.8,   0.00,   0.00,  999.7,    0.7, -999.0
22-03-2023, 00:38:38,    199,    2.2,    7.7,   0.00,   0.00,  999.7,    0.5, -999.0
22-03-2023, 00:38:48,    220,    1.6,    7.7,   0.00,   0.00,  999.6,    0.5, -999.0
22-03-2023, 00:38:58,    187,    1.4,    7.7,   0.00,   0.00,  999.7,    0.6, -999.0
22-03-2023, 00:39:08,    151,    3.6,    7.8,   0.00,   0.00,  999.7,    0.5, -999.0
22-03-2023, 00:39:18,    232,    4.2,    7.7,   0.00,   0.00,  999.7,    0.6, -999.0
22-03-2023, 00:39:28,    138,    4.2,    7.8,   0.00,   0.00,  999.7,    0.5, -999.0
22-03-2023, 00:39:38,    158,    3.8,    7.8,   0.00,   0.00,  999.6,    0.7, -999.0
22-03-2023, 00:39:48,    207,    3.3,    7.8,   0.00,   0.00,  999.7,    0.5, -999.0
22-03-2023, 00:39:58,    163,    3.3,    7.7,   0.00,   0.00,  999.7,    1.0, -999.0
22-03-2023, 00:40:08,    110,    1.9,    7.8,   0.00,   0.00,  999.6,    0.3, -999.0
22-03-2023, 00:40:18,    162,    2.0,    7.8,   0.00,   0.00,  999.7,    0.6, -999.0
22-03-2023, 00:40:28,    172,    2.3,    7.8,   0.00,   0.00,  999.6,    0.8, -999.0
22-03-2023, 00:40:38,    206,    1.9,    7.8,   0.00,   0.00,  999.7,    0.5, -999.0
22-03-2023, 00:40:48,    182,    2.8,    7.8,   0.00,   0.00,  999.6,    0.4, -999.0
22-03-2023, 00:40:58,    224,    2.3,    7.8,   0.00,   0.00,  999.7,    0.5, -999.0
22-03-2023, 00:41:08,    204,    4.7,    7.7,   0.00,   0.00,  999.7,    0.4, -999.0
22-03-2023, 00:41:18,    161,    8.7,    7.8,   0.00,   0.00,  999.6,    0.4, -999.0
22-03-2023, 00:41:28,    179,    4.8,    7.8,   0.00,   0.00,  999.6,    0.6, -999.0
22-03-2023, 00:41:38,    177,    4.3,    7.8,   0.00,   0.00,  999.7,    0.5, -999.0
22-03-2023, 00:41:48,    160,    4.1,    7.9,   0.00,   0.00,  999.7,    0.5, -999.0
22-03-2023, 00:41:58,    197,    4.1,    7.9,   0.00,   0.00,  999.6,    0.5, -999.0
22-03-2023, 00:42:08,    203,    3.0,    7.9,   0.00,   0.00,  999.6,    0.5, -999.0
22-03-2023, 00:42:18,    199,    2.5,    7.8,   0.00,   0.00,  999.6,    0.8, -999.0
22-03-2023, 00:42:28,    172,    2.5,    7.8,   0.00,   0.00,  999.6,    0.3, -999.0
22-03-2023, 00:42:38,    167,    1.0,    7.8,   0.00,   0.00,  999.6,    0.6, -999.0
22-03-2023, 00:42:48,    178,    2.9,    7.9,   0.00,   0.00,  999.6,    0.8, -999.0
22-03-2023, 00:42:58,    190,    1.9,    7.7,   0.00,   0.00,  999.6,    0.4, -999.0
22-03-2023, 00:43:08,    180,    3.5,    7.8,   0.00,   0.00,  999.7,    0.7, -999.0
22-03-2023, 00:43:18,    199,    1.6,    7.8,   0.00,   0.00,  999.6,    0.3, -999.0
22-03-2023, 00:43:28,    159,    1.6,    7.8,   0.00,   0.00,  999.6,    0.4, -999.0
22-03-2023, 00:43:38,    190,    1.4,    7.6,   0.00,   0.00,  999.6,    0.7, -999.0
22-03-2023, 00:43:48,    226,    1.1,    7.8,   0.00,   0.00,  999.6,    0.7, -999.0
22-03-2023, 00:43:58,    184,    1.5,    7.8,   0.00,   0.00,  999.6,    0.5, -999.0
22-03-2023, 00:44:08,    205,    2.5,    7.8,   0.00,   0.00,  999.6,    0.6, -999.0
22-03-2023, 00:44:17,    173,    0.6,    7.7,   0.00,   0.00,  999.6,    0.5, -999.0
22-03-2023, 00:44:28,    209,    5.1,    7.8,   0.00,   0.00,  999.6,    0.5, -999.0
22-03-2023, 00:44:38,    197,    2.2,    7.8,   0.00,   0.00,  999.6,    0.7, -999.0
22-03-2023, 00:44:47,    197,    0.6,    7.8,   0.00,   0.00,  999.6,    0.6, -999.0
22-03-2023, 00:44:58,    178,    2.9,    7.7,   0.00,   0.00,  999.6,    0.8, -999.0
22-03-2023, 00:45:08,    169,    2.6,    7.8,   0.00,   0.00,  999.6,    0.6, -999.0
22-03-2023, 00:45:18,    182,    4.9,    7.7,   0.00,   0.00,  999.6,    0.5, -999.0
22-03-2023, 00:45:29,    169,    1.5,    7.8,   0.00,   0.00,  999.5,    0.7, -999.0
22-03-2023, 00:45:38,    197,    3.7,    7.8,   0.00,   0.00,  999.5,    0.5, -999.0
22-03-2023, 00:45:48,    165,    5.8,    7.7,   0.00,   0.00,  999.6,    0.4, -999.0
22-03-2023, 00:45:57,    188,    1.3,    7.8,   0.00,   0.00,  999.5,    0.4, -999.0
22-03-2023, 00:46:07,    196,    2.7,    7.8,   0.00,   0.00,  999.5,    0.5, -999.0
22-03-2023, 00:46:18,    167,    1.0,    7.9,   0.00,   0.00,  999.5,    0.5, -999.0
22-03-2023, 00:46:28,    238,    2.1,    7.8,   0.00,   0.00,  999.6,    0.5, -999.0
22-03-2023, 00:46:37,    217,    5.8,    7.7,   0.00,   0.00,  999.5,    0.4, -999.0
22-03-2023, 00:46:47,     97,    0.9,    7.8,   0.00,   0.00,  999.4,    0.6, -999.0